When you browse on this site, cookies collect data to enhance your experience and personalize the content and advertising you see.
Visit our Privacy Policy to learn more. By continuing to use the site, you agree to this use of cookies and data.
  • In United Kingdom
  • List of Countries
  • For 7 days
  • Water Temperature
  • Satellite Maps
  • Weather Map
  • Weather Widgets
  • user-avatar
    Login

    Hourly Weather Florencia

    Today, 19 April, Friday

    Time Temperature Precipitation Wind Pressure Humidity
    00:00 +24°C° 0.6 mm 0 mps 733 mmHg 92%
    01:00 +24°C° 0.6 mm 0 mps 733 mmHg 92%
    02:00 +23°C° 0.1 mm 0 mps 733 mmHg 91%
    03:00 +23°C° 0.1 mm 0 mps 733 mmHg 90%
    04:00 +23°C° 0.1 mm 0 mps 733 mmHg 90%
    05:00 +24°C° 0 mm 0 mps 733 mmHg 88%
    06:00 +24°C° 0 mm 0 mps 733 mmHg 86%
    07:00 +24°C° 0 mm 0 mps 733 mmHg 84%
    08:00 +27°C° 0 mm 0 mps 734 mmHg 74%
    09:00 +29°C° 0 mm 0 mps 734 mmHg 63%
    10:00 +32°C° 0 mm 0 mps 735 mmHg 53%
    11:00 +33°C° 0.1 mm 0 mps 734 mmHg 50%
    12:00 +34°C° 0.1 mm 0 mps 733 mmHg 47%
    13:00 +36°C° 0.1 mm 0 mps 732 mmHg 44%
    14:00 +36°C° 0.3 mm 1 mps 732 mmHg 47%
    15:00 +35°C° 0.3 mm 1 mps 731 mmHg 49%
    16:00 +34°C° 0.3 mm 1 mps 730 mmHg 52%
    17:00 +32°C° 0.5 mm 1 mps 731 mmHg 63%
    18:00 +30°C° 0.5 mm 1 mps 731 mmHg 73%
    19:00 +25°C° 0.5 mm 0 mps 731 mmHg 83%
    20:00 +25°C° 0.6 mm 0 mps 732 mmHg 86%
    21:00 +27°C° 0.6 mm 1 mps 733 mmHg 88%
    22:00 +26°C° 0.6 mm 1 mps 733 mmHg 90%
    23:00 +26°C° 0.7 mm 1 mps 733 mmHg 91%

    Tomorrow, 20 April, Saturday

    Time Temperature Precipitation Wind Pressure Humidity
    00:00 +26°C° 0.7 mm 1 mps 733 mmHg 92%
    01:00 +26°C° 0.7 mm 1 mps 733 mmHg 93%
    02:00 +23°C° 0.2 mm 0 mps 733 mmHg 93%
    03:00 +23°C° 0.2 mm 0 mps 733 mmHg 93%
    04:00 +23°C° 0.2 mm 0 mps 733 mmHg 93%
    05:00 +24°C° 0.1 mm 0 mps 733 mmHg 92%
    06:00 +24°C° 0.1 mm 0 mps 733 mmHg 91%
    07:00 +24°C° 0.1 mm 0 mps 734 mmHg 90%
    08:00 +24°C° 0.9 mm 0 mps 734 mmHg 90%
    09:00 +24°C° 0.9 mm 0 mps 735 mmHg 91%
    10:00 +24°C° 0.9 mm 0 mps 735 mmHg 91%
    11:00 +24°C° 1 mm 0 mps 735 mmHg 92%
    12:00 +24°C° 1 mm 0 mps 734 mmHg 92%
    13:00 +24°C° 1 mm 0 mps 734 mmHg 93%
    14:00 +24°C° 0.6 mm 0 mps 733 mmHg 91%
    15:00 +26°C° 0.6 mm 1 mps 732 mmHg 90%
    16:00 +26°C° 0.6 mm 1 mps 731 mmHg 88%
    17:00 +26°C° 0.2 mm 1 mps 732 mmHg 88%
    18:00 +26°C° 0.2 mm 1 mps 732 mmHg 88%
    19:00 +25°C° 0.2 mm 1 mps 732 mmHg 87%
    20:00 +25°C° 0.1 mm 1 mps 733 mmHg 86%
    21:00 +25°C° 0.1 mm 1 mps 734 mmHg 84%
    22:00 +25°C° 0.1 mm 1 mps 734 mmHg 82%
    23:00 +25°C° 0.1 mm 1 mps 734 mmHg 81%

    Day after tomorrow, 21 April, Sunday

    Time Temperature Precipitation Wind Pressure Humidity
    00:00 +25°C° 0.1 mm 1 mps 734 mmHg 80%
    01:00 +25°C° 0.1 mm 1 mps 733 mmHg 79%
    02:00 +25°C° 0.1 mm 1 mps 733 mmHg 79%
    03:00 +25°C° 0.1 mm 1 mps 733 mmHg 79%
    04:00 +25°C° 0.1 mm 1 mps 732 mmHg 78%
    05:00 +25°C° 0.1 mm 1 mps 733 mmHg 77%
    06:00 +25°C° 0.1 mm 1 mps 733 mmHg 76%
    07:00 +26°C° 0.1 mm 1 mps 734 mmHg 75%
    08:00 +26°C° 0.1 mm 0 mps 734 mmHg 67%
    09:00 +29°C° 0.1 mm 0 mps 735 mmHg 59%
    10:00 +31°C° 0.1 mm 0 mps 735 mmHg 50%
    11:00 +33°C° 0 mm 0 mps 735 mmHg 48%
    12:00 +34°C° 0 mm 0 mps 734 mmHg 45%
    13:00 +37°C° 0 mm 1 mps 733 mmHg 42%
    14:00 +36°C° 0.1 mm 1 mps 732 mmHg 45%
    15:00 +35°C° 0.1 mm 1 mps 731 mmHg 48%
    16:00 +34°C° 0.1 mm 1 mps 731 mmHg 51%
    17:00 +31°C° 0.1 mm 1 mps 731 mmHg 60%
    18:00 +29°C° 0.1 mm 1 mps 731 mmHg 70%
    19:00 +25°C° 0.1 mm 0 mps 732 mmHg 79%
    20:00 +25°C° 0.2 mm 0 mps 732 mmHg 80%
    21:00 +26°C° 0.2 mm 1 mps 733 mmHg 81%
    22:00 +26°C° 0.2 mm 1 mps 733 mmHg 82%
    23:00 +26°C° 0 mm 1 mps 733 mmHg 82%

    22 April, Monday

    Time Temperature Precipitation Wind Pressure Humidity
    00:00 +26°C° 0 mm 1 mps 733 mmHg 81%
    01:00 +26°C° 0 mm 1 mps 732 mmHg 80%
    02:00 +26°C° 0 mm 1 mps 732 mmHg 80%
    03:00 +26°C° 0 mm 1 mps 732 mmHg 79%
    04:00 +25°C° 0 mm 1 mps 731 mmHg 79%
    05:00 +26°C° 0 mm 1 mps 732 mmHg 78%
    06:00 +24°C° 0 mm 0 mps 732 mmHg 77%
    07:00 +24°C° 0 mm 0 mps 733 mmHg 76%
    08:00 +27°C° 0 mm 0 mps 733 mmHg 69%
    09:00 +29°C° 0 mm 0 mps 734 mmHg 62%
    10:00 +31°C° 0 mm 0 mps 734 mmHg 55%
    11:00 +32°C° 0 mm 0 mps 733 mmHg 51%
    12:00 +33°C° 0 mm 0 mps 733 mmHg 47%
    13:00 +34°C° 0 mm 0 mps 732 mmHg 43%
    14:00 +35°C° 0 mm 1 mps 731 mmHg 46%
    15:00 +34°C° 0 mm 1 mps 730 mmHg 50%
    16:00 +33°C° 0 mm 1 mps 730 mmHg 54%
    17:00 +31°C° 0.1 mm 1 mps 730 mmHg 65%
    18:00 +29°C° 0.1 mm 1 mps 731 mmHg 77%
    19:00 +25°C° 0.1 mm 0 mps 731 mmHg 89%
    20:00 +25°C° 1.2 mm 0 mps 732 mmHg 91%
    21:00 +24°C° 1.2 mm 0 mps 732 mmHg 93%
    22:00 +26°C° 1.2 mm 1 mps 733 mmHg 95%
    23:00 +26°C° 0.4 mm 1 mps 733 mmHg 94%

    23 April, Tuesday

    Time Temperature Precipitation Wind Pressure Humidity
    00:00 +25°C° 0.4 mm 1 mps 732 mmHg 93%
    01:00 +25°C° 0.4 mm 1 mps 732 mmHg 93%
    02:00 +25°C° 0.3 mm 1 mps 732 mmHg 93%
    03:00 +23°C° 0.3 mm 0 mps 732 mmHg 93%
    04:00 +23°C° 0.3 mm 0 mps 732 mmHg 93%
    05:00 +23°C° 0.1 mm 0 mps 732 mmHg 92%
    06:00 +25°C° 0.1 mm 1 mps 733 mmHg 92%
    07:00 +25°C° 0.1 mm 1 mps 733 mmHg 91%
    08:00 +25°C° 0.2 mm 0 mps 734 mmHg 84%
    09:00 +27°C° 0.2 mm 0 mps 734 mmHg 77%
    10:00 +28°C° 0.2 mm 0 mps 734 mmHg 70%
    11:00 +29°C° 0.2 mm 0 mps 733 mmHg 66%
    12:00 +32°C° 0.2 mm 1 mps 733 mmHg 62%
    13:00 +33°C° 0.2 mm 1 mps 732 mmHg 58%
    14:00 +32°C° 0.3 mm 1 mps 731 mmHg 61%
    15:00 +32°C° 0.3 mm 1 mps 731 mmHg 65%
    16:00 +31°C° 0.3 mm 1 mps 730 mmHg 68%
    17:00 +30°C° 0.5 mm 1 mps 731 mmHg 76%
    18:00 +26°C° 0.5 mm 0 mps 732 mmHg 83%
    19:00 +25°C° 0.5 mm 0 mps 732 mmHg 91%
    20:00 +24°C° 0.8 mm 0 mps 733 mmHg 92%
    21:00 +24°C° 0.8 mm 0 mps 733 mmHg 93%
    22:00 +23°C° 0.8 mm 0 mps 734 mmHg 93%
    23:00 +23°C° 0.5 mm 0 mps 733 mmHg 93%

    24 April, Wednesday

    Time Temperature Precipitation Wind Pressure Humidity
    00:00 +23°C° 0.5 mm 0 mps 733 mmHg 93%
    01:00 +23°C° 0.5 mm 0 mps 733 mmHg 93%
    02:00 +23°C° 0.3 mm 0 mps 733 mmHg 93%
    03:00 +23°C° 0.3 mm 0 mps 733 mmHg 93%
    04:00 +23°C° 0.3 mm 0 mps 732 mmHg 93%
    05:00 +23°C° 0.1 mm 0 mps 733 mmHg 92%
    06:00 +23°C° 0.1 mm 0 mps 734 mmHg 91%
    07:00 +24°C° 0.1 mm 0 mps 734 mmHg 90%
    08:00 +25°C° 0.3 mm 0 mps 734 mmHg 86%
    09:00 +26°C° 0.3 mm 0 mps 735 mmHg 82%
    10:00 +27°C° 0.3 mm 0 mps 735 mmHg 77%
    11:00 +28°C° 0.3 mm 0 mps 734 mmHg 71%
    12:00 +30°C° 0.3 mm 0 mps 733 mmHg 66%
    13:00 +31°C° 0.3 mm 0 mps 733 mmHg 60%
    14:00 +31°C° 0.3 mm 0 mps 732 mmHg 61%
    15:00 +32°C° 0.3 mm 1 mps 732 mmHg 62%
    16:00 +32°C° 0.3 mm 1 mps 731 mmHg 63%
    17:00 +30°C° 1.1 mm 1 mps 732 mmHg 74%
    18:00 +26°C° 1.1 mm 0 mps 732 mmHg 84%
    19:00 +24°C° 1.1 mm 0 mps 733 mmHg 95%
    20:00 +24°C° 0.3 mm 0 mps 733 mmHg 95%
    21:00 +23°C° 0.3 mm 0 mps 733 mmHg 95%
    22:00 +23°C° 0.3 mm 0 mps 734 mmHg 96%
    23:00 +23°C° 0.3 mm 0 mps 734 mmHg 95%
    Show more